�������l�o���
Date,Time,MP-1(��Sv/h),MP-2(��Sv/h),MP-3(��Sv/h),MP-4(��Sv/h),MP-5(��Sv/h),MP-6(��Sv/h),MP-7(��Sv/h),MP-8(��Sv/h),����,����(m/s),���J
2023/06/28,00:00,0.528,0.809,0.491,0.967,0.707,0.325,0.565,0.535,��,5.4,��
2023/06/28,00:10,0.530,0.806,0.492,0.966,0.706,0.325,0.568,0.535,��,4.7,��
2023/06/28,00:20,0.530,0.808,0.491,0.965,0.708,0.325,0.569,0.535,��,4.9,��
2023/06/28,00:30,0.530,0.808,0.491,0.963,0.705,0.326,0.568,0.535,��,4.9,��
2023/06/28,00:40,0.531,0.809,0.492,0.966,0.708,0.325,0.568,0.535,��,4.9,��
2023/06/28,00:50,0.530,0.806,0.490,0.966,0.708,0.325,0.567,0.534,��,4.4,��
2023/06/28,01:00,0.529,0.810,0.491,0.965,0.707,0.325,0.566,0.535,��,3.7,��
2023/06/28,01:10,0.531,0.807,0.492,0.965,0.707,0.325,0.567,0.535,��,3.6,��
2023/06/28,01:20,0.531,0.808,0.493,0.967,0.707,0.326,0.569,0.534,��,4.2,��
2023/06/28,01:30,0.531,0.807,0.491,0.965,0.707,0.325,0.568,0.534,��쐼,4.2,��
2023/06/28,01:40,0.529,0.807,0.491,0.967,0.706,0.326,0.568,0.535,��쐼,4.0,��
2023/06/28,01:50,0.531,0.808,0.491,0.966,0.709,0.326,0.568,0.534,��쐼,4.2,��
2023/06/28,02:00,0.530,0.809,0.490,0.968,0.707,0.326,0.568,0.535,��쐼,3.7,��
2023/06/28,02:10,0.530,0.807,0.491,0.965,0.706,0.325,0.567,0.535,��,3.9,��
2023/06/28,02:20,0.532,0.809,0.491,0.965,0.708,0.326,0.568,0.535,��,3.6,��
2023/06/28,02:30,0.530,0.808,0.490,0.968,0.707,0.326,0.568,0.535,��,4.4,��
2023/06/28,02:40,0.531,0.809,0.492,0.965,0.708,0.325,0.567,0.535,��,4.3,��
2023/06/28,02:50,0.531,0.808,0.493,0.968,0.707,0.326,0.567,0.535,��쐼,3.2,��
2023/06/28,03:00,0.531,0.807,0.492,0.967,0.708,0.327,0.569,0.535,��,2.9,��
2023/06/28,03:10,0.530,0.809,0.491,0.967,0.708,0.325,0.569,0.536,��쐼,2.6,��
2023/06/28,03:20,0.530,0.807,0.492,0.966,0.708,0.325,0.569,0.535,��,1.9,�L
2023/06/28,03:30,0.530,0.809,0.491,0.966,0.708,0.326,0.567,0.535,��쐼,0.9,�L
2023/06/28,03:40,0.532,0.808,0.492,0.967,0.707,0.326,0.569,0.534,��,0.6,�L
2023/06/28,03:50,0.532,0.807,0.492,0.965,0.707,0.326,0.567,0.535,-,CALM,�L
2023/06/28,04:00,0.531,0.807,0.492,0.967,0.707,0.327,0.569,0.535,�k�k��,2.0,��
2023/06/28,04:10,0.532,0.810,0.492,0.967,0.706,0.326,0.567,0.534,�k�k��,2.8,��
2023/06/28,04:20,0.532,0.808,0.491,0.963,0.706,0.327,0.569,0.535,�k�k��,2.2,�L
2023/06/28,04:30,0.531,0.808,0.492,0.965,0.707,0.326,0.568,0.534,�k,2.6,�L
2023/06/28,04:40,0.530,0.807,0.493,0.965,0.707,0.326,0.568,0.535,�k�k��,2.2,�L
2023/06/28,04:50,0.530,0.809,0.491,0.966,0.707,0.325,0.569,0.535,�k�k��,2.3,�L
2023/06/28,05:00,0.532,0.808,0.491,0.967,0.706,0.325,0.569,0.536,�k��,1.5,�L
2023/06/28,05:10,0.530,0.807,0.490,0.966,0.708,0.325,0.568,0.535,��,1.5,�L
2023/06/28,05:20,0.531,0.808,0.492,0.965,0.709,0.325,0.569,0.536,���쓌,1.4,�L
2023/06/28,05:30,0.530,0.808,0.491,0.966,0.706,0.326,0.567,0.534,-,CALM,�L
2023/06/28,05:40,0.532,0.810,0.492,0.966,0.708,0.326,0.569,0.535,�k�k��,0.9,�L
2023/06/28,05:50,0.532,0.810,0.494,0.965,0.708,0.327,0.568,0.535,�k��,1.5,�L
2023/06/28,06:00,0.532,0.807,0.494,0.969,0.707,0.326,0.568,0.536,�k,2.0,�L
2023/06/28,06:10,0.531,0.808,0.491,0.967,0.706,0.326,0.569,0.535,�k�k��,2.0,�L
2023/06/28,06:20,0.531,0.808,0.493,0.967,0.707,0.326,0.569,0.534,�k�k��,2.3,�L
2023/06/28,06:30,0.531,0.806,0.493,0.967,0.709,0.327,0.569,0.536,�k�k��,1.9,�L
2023/06/28,06:40,0.531,0.807,0.494,0.966,0.707,0.326,0.569,0.535,�k�k��,2.0,�L
2023/06/28,06:50,0.531,0.808,0.492,0.967,0.707,0.327,0.570,0.537,�k,1.9,�L
2023/06/28,07:00,0.531,0.807,0.493,0.967,0.708,0.326,0.568,0.535,�k�k��,1.9,�L
2023/06/28,07:10,0.529,0.808,0.492,0.966,0.706,0.325,0.570,0.534,�k�k��,1.2,��
2023/06/28,07:20,0.530,0.806,0.491,0.966,0.707,0.326,0.569,0.534,�k�k��,2.5,�L
2023/06/28,07:30,0.529,0.806,0.491,0.965,0.707,0.325,0.569,0.535,�k��,2.2,�L
2023/06/28,07:40,0.531,0.806,0.492,0.967,0.707,0.326,0.568,0.534,�k�k��,2.3,��
2023/06/28,07:50,0.531,0.806,0.492,0.965,0.706,0.326,0.570,0.535,�k��,1.7,��
2023/06/28,08:00,0.531,0.807,0.491,0.968,0.706,0.325,0.569,0.535,�k��,1.5,�L
2023/06/28,08:10,0.529,0.805,0.491,0.967,0.705,0.326,0.569,0.536,�k�k��,1.2,�L
2023/06/28,08:20,0.529,0.805,0.489,0.965,0.707,0.326,0.570,0.534,-,CALM,�L
2023/06/28,08:30,0.530,0.806,0.490,0.967,0.706,0.325,0.568,0.534,-,CALM,�L
2023/06/28,08:40,0.527,0.806,0.490,0.966,0.705,0.325,0.568,0.534,-,CALM,�L
2023/06/28,08:50,0.529,0.803,0.491,0.967,0.704,0.325,0.569,0.534,��쓌,0.8,��
2023/06/28,09:00,0.529,0.804,0.490,0.965,0.707,0.324,0.569,0.534,��,0.8,�L
2023/06/28,09:10,0.530,0.804,0.491,0.964,0.706,0.324,0.569,0.534,��쐼,1.2,�L
2023/06/28,09:20,0.530,0.805,0.491,0.967,0.705,0.326,0.568,0.534,��쐼,1.5,��
2023/06/28,09:30,0.531,0.807,0.491,0.966,0.705,0.324,0.569,0.532,��쐼,1.2,��
2023/06/28,09:40,0.529,0.807,0.491,0.964,0.705,0.323,0.568,0.533,��쓌,1.5,��
2023/06/28,09:50,0.531,0.805,0.492,0.966,0.707,0.323,0.569,0.531,��,2.8,��
2023/06/28,10:00,0.530,0.804,0.492,0.965,0.706,0.324,0.568,0.531,��,3.6,��
2023/06/28,10:10,0.531,0.805,0.489,0.966,0.706,0.325,0.567,0.532,��쓌,3.5,��
2023/06/28,10:20,0.529,0.806,0.491,0.968,0.706,0.323,0.567,0.532,��쓌,3.3,�L
2023/06/28,10:30,0.529,0.805,0.488,0.967,0.708,0.323,0.568,0.533,��쓌,4.3,��
2023/06/28,10:40,0.530,0.804,0.491,0.966,0.706,0.324,0.568,0.533,��,3.3,��
2023/06/28,10:50,0.530,0.803,0.489,0.966,0.708,0.325,0.567,0.532,��쓌,3.8,��
2023/06/28,11:00,0.528,0.805,0.490,0.965,0.706,0.325,0.569,0.532,��쓌,4.8,��
2023/06/28,11:10,0.530,0.805,0.493,0.965,0.705,0.325,0.568,0.534,��,6.0,��
2023/06/28,11:20,0.528,0.805,0.492,0.966,0.706,0.326,0.568,0.532,��쓌,4.7,��
2023/06/28,11:30,0.531,0.807,0.491,0.967,0.708,0.325,0.568,0.533,��쓌,4.8,��
2023/06/28,11:40,0.530,0.807,0.490,0.968,0.707,0.325,0.569,0.533,��쓌,3.6,��
2023/06/28,11:50,0.528,0.807,0.492,0.967,0.708,0.325,0.570,0.532,��쓌,4.6,�L
2023/06/28,12:00,0.532,0.808,0.492,0.967,0.709,0.326,0.568,0.532,��쓌,5.1,��
2023/06/28,12:10,0.532,0.809,0.493,0.967,0.709,0.325,0.570,0.533,��쓌,5.1,��
2023/06/28,12:20,0.530,0.811,0.492,0.968,0.708,0.324,0.568,0.533,��쓌,4.4,��
2023/06/28,12:30,0.530,0.809,0.490,0.967,0.709,0.325,0.569,0.534,��쓌,6.1,��
2023/06/28,12:40,0.532,0.808,0.493,0.967,0.708,0.326,0.569,0.533,��쓌,7.7,��
2023/06/28,12:50,0.529,0.808,0.489,0.967,0.708,0.324,0.570,0.534,��,7.1,��
2023/06/28,13:00,0.530,0.808,0.491,0.966,0.708,0.325,0.569,0.532,��,6.8,��
2023/06/28,13:10,0.531,0.810,0.491,0.965,0.709,0.324,0.570,0.532,��,6.5,�L
2023/06/28,13:20,0.531,0.808,0.492,0.966,0.710,0.326,0.569,0.533,��,5.4,��
2023/06/28,13:30,0.530,0.808,0.488,0.967,0.706,0.324,0.571,0.533,��,5.1,��
2023/06/28,13:40,0.530,0.808,0.492,0.967,0.707,0.324,0.570,0.533,��,5.5,��
2023/06/28,13:50,0.530,0.808,0.492,0.967,0.710,0.326,0.568,0.534,��,5.2,��
2023/06/28,14:00,0.531,0.809,0.493,0.969,0.710,0.324,0.568,0.531,��,4.5,��
2023/06/28,14:10,0.531,0.809,0.492,0.967,0.711,0.324,0.569,0.533,��,5.1,��
2023/06/28,14:20,0.530,0.808,0.494,0.970,0.710,0.326,0.569,0.535,��쓌,6.0,��
2023/06/28,14:30,0.531,0.808,0.493,0.967,0.710,0.326,0.570,0.532,��쓌,8.9,��
2023/06/28,14:40,0.531,0.809,0.490,0.967,0.708,0.326,0.569,0.533,��쓌,8.8,��
2023/06/28,14:50,0.532,0.809,0.490,0.968,0.710,0.326,0.568,0.534,��쓌,8.1,��
2023/06/28,15:00,0.533,0.809,0.493,0.969,0.710,0.324,0.569,0.533,��,8.1,��
2023/06/28,15:10,0.530,0.808,0.493,0.970,0.710,0.324,0.570,0.533,��,8.8,��
2023/06/28,15:20,0.530,0.809,0.493,0.970,0.713,0.325,0.568,0.532,��,8.0,��
2023/06/28,15:30,0.530,0.808,0.489,0.968,0.708,0.325,0.568,0.532,��,5.2,��
2023/06/28,15:40,0.530,0.809,0.491,0.968,0.708,0.325,0.567,0.533,��,5.0,��
2023/06/28,15:50,0.530,0.809,0.492,0.967,0.708,0.324,0.567,0.533,��,5.2,��
2023/06/28,16:00,0.530,0.811,0.491,0.968,0.709,0.324,0.567,0.533,��,7.0,��
2023/06/28,16:10,0.532,0.808,0.491,0.967,0.709,0.325,0.569,0.533,��,6.4,��
2023/06/28,16:20,0.531,0.809,0.492,0.969,0.709,0.325,0.569,0.534,��,6.2,��
2023/06/28,16:30,0.531,0.809,0.491,0.969,0.711,0.324,0.568,0.532,��,6.3,��
2023/06/28,16:40,0.532,0.809,0.492,0.970,0.711,0.325,0.568,0.533,��,5.6,��
2023/06/28,16:50,0.530,0.810,0.492,0.968,0.710,0.325,0.568,0.533,��,6.8,��
2023/06/28,17:00,0.531,0.811,0.492,0.967,0.711,0.324,0.569,0.533,��,8.5,�L
2023/06/28,17:10,0.530,0.812,0.492,0.971,0.713,0.324,0.569,0.535,��,6.1,��
2023/06/28,17:20,0.530,0.811,0.494,0.969,0.712,0.326,0.568,0.536,��,4.8,��
2023/06/28,17:30,0.532,0.810,0.492,0.969,0.709,0.325,0.568,0.535,��,6.4,�L
2023/06/28,17:40,0.531,0.810,0.492,0.968,0.714,0.327,0.568,0.536,��,6.6,�L
2023/06/28,17:50,0.532,0.811,0.494,0.971,0.712,0.327,0.569,0.537,��쐼,5.0,�L
2023/06/28,18:00,0.532,0.811,0.493,0.971,0.713,0.328,0.568,0.533,��쐼,3.3,�L
2023/06/28,18:10,0.533,0.810,0.493,0.972,0.711,0.329,0.569,0.534,��,1.5,�L
2023/06/28,18:20,0.533,0.812,0.496,0.970,0.711,0.330,0.569,0.537,��,1.7,�L
2023/06/28,18:30,0.535,0.810,0.495,0.973,0.712,0.331,0.568,0.536,���k��,2.0,�L
2023/06/28,18:40,0.534,0.807,0.495,0.971,0.712,0.330,0.569,0.537,���k��,1.7,�L
2023/06/28,18:50,0.532,0.805,0.495,0.973,0.710,0.332,0.569,0.535,��,1.4,�L
2023/06/28,19:00,0.532,0.804,0.493,0.972,0.709,0.330,0.568,0.535,��,1.7,�L
2023/06/28,19:10,0.530,0.803,0.493,0.968,0.705,0.330,0.568,0.535,��,1.4,�L
2023/06/28,19:20,0.528,0.798,0.490,0.964,0.700,0.331,0.565,0.535,�k��,2.6,�L
2023/06/28,19:30,0.527,0.794,0.491,0.962,0.697,0.329,0.566,0.533,�k�k��,4.5,�L
2023/06/28,19:40,0.526,0.793,0.491,0.956,0.698,0.330,0.565,0.532,�k��,4.6,�L
2023/06/28,19:50,0.526,0.793,0.491,0.957,0.696,0.330,0.563,0.532,�k��,3.8,�L
2023/06/28,20:00,0.524,0.790,0.489,0.955,0.694,0.330,0.564,0.532,�k��,4.3,�L
2023/06/28,20:10,0.524,0.786,0.489,0.952,0.694,0.328,0.564,0.532,�k��,4.8,�L
2023/06/28,20:20,0.522,0.786,0.486,0.950,0.692,0.327,0.564,0.532,�k��,6.2,�L
2023/06/28,20:30,0.521,0.787,0.485,0.949,0.690,0.328,0.562,0.529,�k�k��,7.6,�L
2023/06/28,20:40,0.521,0.785,0.484,0.947,0.689,0.327,0.561,0.531,�k�k��,6.8,�L
2023/06/28,20:50,0.518,0.781,0.482,0.944,0.687,0.325,0.560,0.529,�k,5.0,�L
2023/06/28,21:00,0.518,0.781,0.480,0.945,0.686,0.324,0.560,0.528,�k,6.4,�L
2023/06/28,21:10,0.516,0.778,0.480,0.943,0.683,0.322,0.560,0.526,�k,6.4,�L
2023/06/28,21:20,0.515,0.776,0.478,0.940,0.684,0.322,0.559,0.526,�k,6.9,�L
2023/06/28,21:30,0.514,0.773,0.477,0.939,0.680,0.322,0.559,0.525,�k,8.4,�L
2023/06/28,21:40,0.512,0.770,0.479,0.935,0.679,0.322,0.556,0.525,�k,8.6,�L
2023/06/28,21:50,0.512,0.773,0.479,0.935,0.678,0.322,0.556,0.525,�k,8.3,�L
2023/06/28,22:00,0.512,0.772,0.478,0.932,0.680,0.321,0.555,0.523,�k�k��,7.0,�L
2023/06/28,22:10,0.513,0.773,0.479,0.930,0.679,0.323,0.555,0.524,�k�k��,6.9,�L
2023/06/28,22:20,0.513,0.772,0.479,0.932,0.678,0.323,0.556,0.524,�k,5.7,�L
2023/06/28,22:30,0.513,0.772,0.479,0.930,0.678,0.324,0.555,0.525,�k,5.2,�L
2023/06/28,22:40,0.511,0.770,0.479,0.930,0.676,0.323,0.556,0.524,�k,5.1,�L
2023/06/28,22:50,0.512,0.770,0.480,0.928,0.678,0.323,0.555,0.523,�k,5.0,�L
2023/06/28,23:00,0.511,0.768,0.477,0.924,0.677,0.323,0.554,0.523,�k��,4.9,�L
2023/06/28,23:10,0.511,0.766,0.478,0.919,0.672,0.323,0.552,0.521,���k��,10.0,�L
2023/06/28,23:20,0.507,0.762,0.476,0.917,0.669,0.323,0.551,0.521,�k,7.3,�L
2023/06/28,23:30,0.507,0.761,0.478,0.915,0.667,0.322,0.549,0.521,�k,5.3,�L
2023/06/28,23:40,0.508,0.762,0.476,0.915,0.668,0.323,0.549,0.521,�k�k��,7.0,�L
2023/06/28,23:50,0.508,0.762,0.477,0.914,0.667,0.324,0.550,0.521,�k,3.9,�L
